Location: Northern Prairie Star Party
(53.2167°N, 112.5333°W)
Time: 15:16:17
(UTC-06:00)

Amateur Radio Satellites - All Passes

Search period start: 30 July 2014 14:46
Search period end: 31 July 2014 14:46
Location: Northern Prairie Star Party, 53.2167°N, 112.5333°W

Satellite Date Start Highest point End Downlink Frequencies (MHz)
Time Altitude Azimuth
UOSAT-12 30 Jul 14:50:55 14:54:58 31° 120° (ESE) 14:59:06 437.025 FM, 437.400 FM
Oscar 19 30 Jul 14:59:50 15:04:27 33° 265° (W) 15:09:06 437.125 CW, 437.150 USB
AO-Echo 30 Jul 15:02:05 15:07:20 59° 259° (W) 15:12:36 ?
Gurwin Techsat 1B 30 Jul 15:04:01 15:09:18 72° 71° (ENE) 15:14:38 435.225 FM
KITSAT 1 30 Jul 15:18:17 15:26:25 82° 232° (SW) 15:34:29 435.175 FM
Uosat F 30 Jul 15:23:14 15:27:21 26° 57° (ENE) 15:31:29 435.120 FM
Oscar 16 30 Jul 15:29:50 15:33:32 20° 271° (W) 15:37:14 437.025 USB, Beacon 2401.1428
ITAMSAT 1 30 Jul 15:53:30 15:57:46 25° 268° (W) 16:02:03 435.822 SSB
JAS-2 30 Jul 16:11:14 16:15:24 16° 43° (NE) 16:19:21 435.800 - 435.900 CW/SSB, 435.910 FM
Uribyol 2 30 Jul 16:13:43 16:17:06 17° 273° (W) 16:20:29 436.500 FM
JAS-1B 30 Jul 16:14:16 16:23:09 48° 266° (W) 16:32:42 435.800 - 435.900 CW/SSB
AO-27 30 Jul 16:14:16 16:17:45 18° 272° (W) 16:21:14 436.795 MHz FM
OPAL 30 Jul 16:15:45 16:17:30 12° 86° (E) 16:19:16 ?
Saudisat 1A 30 Jul 16:18:21 16:22:44 62° 231° (SW) 16:27:04 436.775 MHz
TMSAT-1 30 Jul 16:18:49 16:23:50 43° 262° (W) 16:28:54 436.925 FM
SO-50 30 Jul 16:21:15 16:24:58 24° 344° (NNW) 16:28:46 436.795 FM
UOSAT-12 30 Jul 16:30:17 16:34:54 60° 321° (NW) 16:39:37 437.025 FM, 437.400 FM
AO-7 30 Jul 16:34:42 16:43:06 90° 248° (WSW) 16:51:32 29.400 - 29.500 MHz
Hamsat 30 Jul 16:41:58 16:43:19 11° 52° (NE) 16:44:40 145.90 MHz
Gurwin Techsat 1B 30 Jul 16:45:47 16:49:50 22° 271° (W) 16:53:55 435.225 FM
AO-Echo 30 Jul 16:46:03 16:47:13 11° 279° (W) 16:48:24 ?
RS-15 30 Jul 16:58:55 17:09:42 57° 334° (NNW) 17:20:32 29.354 - 29.394 USB, Beacon 29.352 USB
Uosat F 30 Jul 17:00:48 17:05:48 63° 257° (WSW) 17:10:51 435.120 FM
KITSAT 1 30 Jul 17:14:34 17:20:45 25° 255° (WSW) 17:26:54 435.175 FM
JAS-2 30 Jul 17:51:51 17:59:08 51° 64° (ENE) 18:05:48 435.800 - 435.900 CW/SSB, 435.910 FM
OPAL 30 Jul 17:52:18 17:57:22 66° 106° (ESE) 18:02:28 ?
Saudisat 1A 30 Jul 18:00:18 18:01:27 11° 251° (WSW) 18:02:36 436.775 MHz
SO-50 30 Jul 18:03:23 18:06:58 21° 9° (N) 18:10:37 436.795 FM
UOSAT-12 30 Jul 18:12:03 18:15:56 25° 344° (NNW) 18:19:51 437.025 FM, 437.400 FM
JAS-1B 30 Jul 18:12:17 18:16:24 13° 291° (WNW) 18:20:37 435.800 - 435.900 CW/SSB
Hamsat 30 Jul 18:14:20 18:18:29 65° 72° (ENE) 18:22:42 145.90 MHz
AO-7 30 Jul 18:30:16 18:37:00 26° 271° (W) 18:43:47 29.400 - 29.500 MHz
Uosat F 30 Jul 18:44:28 18:45:39 11° 277° (W) 18:46:50 435.120 FM
SO-67 30 Jul 19:01:39 19:04:47 32° 68° (ENE) 19:07:57 435.3500 MHz FM
RS-15 30 Jul 19:14:01 19:24:28 47° 6° (N) 19:35:05 29.354 - 29.394 USB, Beacon 29.352 USB
HO-68 30 Jul 19:14:42 19:19:53 22° 43° (NE) 19:25:04 435.675 MHz FM
OPAL 30 Jul 19:31:47 19:35:54 26° 306° (NW) 19:40:04 ?
JAS-2 30 Jul 19:36:54 19:44:15 47° 263° (W) 19:51:01 435.800 - 435.900 CW/SSB, 435.910 FM
SO-50 30 Jul 19:44:11 19:48:39 41° 33° (NNE) 19:53:11 436.795 FM
Hamsat 30 Jul 19:52:07 19:54:55 17° 271° (W) 19:57:45 145.90 MHz
UOSAT-12 30 Jul 19:53:51 19:57:31 22° 8° (N) 20:01:12 437.025 FM, 437.400 FM
STRAND 1 30 Jul 20:18:31 20:23:35 58° 102° (ESE) 20:28:36 ?
SO-67 30 Jul 20:35:05 20:37:56 24° 266° (W) 20:40:49 435.3500 MHz FM
UKube-1 30 Jul 20:38:24 20:42:00 25° 60° (ENE) 20:45:36 145.840 MHz, 145.915 MHz
HO-68 30 Jul 20:59:24 21:06:31 69° 66° (ENE) 21:13:38 435.675 MHz FM
Oscar 11 30 Jul 21:21:09 21:24:57 31° 64° (ENE) 21:28:46 145.825 FM, Beacon 2401.500 USB
SO-50 30 Jul 21:24:48 21:29:23 52° 234° (SW) 21:34:03 436.795 FM
RS-15 30 Jul 21:27:46 21:38:45 72° 38° (NE) 21:50:02 29.354 - 29.394 USB, Beacon 29.352 USB
JAS-2 30 Jul 21:29:34 21:30:56 11° 284° (WNW) 21:32:17 435.800 - 435.900 CW/SSB, 435.910 FM
UOSAT-12 30 Jul 21:34:20 21:38:50 40° 32° (NNE) 21:43:18 437.025 FM, 437.400 FM
FUNcube-1 30 Jul 21:48:33 21:51:59 24° 61° (ENE) 21:55:23 145.950 - 145.970 MHz USB
MaSat-1 30 Jul 21:51:01 21:55:13 48° 115° (ESE) 22:00:01 437.345 MHz
STRAND 1 30 Jul 21:58:12 22:02:30 28° 302° (WNW) 22:06:47 ?
UKube-1 30 Jul 22:13:44 22:17:59 50° 259° (W) 22:22:16 145.840 MHz, 145.915 MHz
HO-68 30 Jul 22:48:31 22:54:47 32° 267° (W) 23:01:06 435.675 MHz FM
Oscar 11 30 Jul 22:57:04 23:01:05 37° 263° (W) 23:05:08 145.825 FM, Beacon 2401.500 USB
UOSAT-12 30 Jul 23:14:33 23:19:11 54° 233° (SW) 23:23:46 437.025 FM, 437.400 FM
FUNcube-1 30 Jul 23:24:03 23:28:11 48° 260° (W) 23:32:17 145.950 - 145.970 MHz USB
MaSat-1 30 Jul 23:28:27 23:32:44 37° 318° (NW) 23:37:29 437.345 MHz
RS-15 30 Jul 23:40:27 23:50:46 49° 244° (WSW) 00:01:26 29.354 - 29.394 USB, Beacon 29.352 USB
PCSat 31 Jul 00:02:51 00:05:30 14° 104° (ESE) 00:08:10 145.825 MHz
ISS 31 Jul 00:02:58 00:05:18 18° 145° (SE) 00:07:40 145.800 FM
Oscar 10/S400 31 Jul 00:09:03 00:35:22 44° 166° (SSE) 07:40:25 145.825 - 145.975 CW/USB, Beacon 145.810 USB
AO-40 31 Jul 00:18:50 04:59:35 26° 183° (S) 10:01:53 Beacon 2401.320
UOSAT-12 31 Jul 00:58:10 00:58:20 10° 253° (WSW) 00:58:31 437.025 FM, 437.400 FM
MaSat-1 31 Jul 01:08:29 01:11:31 16° 342° (NNW) 01:14:42 437.345 MHz
Sapphire 31 Jul 01:09:55 01:14:53 39° 116° (ESE) 01:19:54 437.095 MHz 1200 baud AX-25 AFSK
ISS 31 Jul 01:38:16 01:41:32 50° 164° (SSE) 01:44:48 145.800 FM
PCSat 31 Jul 01:42:35 01:47:57 67° 124° (SE) 01:53:21 145.825 MHz
Oscar 16 31 Jul 01:54:47 01:58:09 17° 87° (E) 02:01:32 437.025 USB, Beacon 2401.1428
RS-15 31 Jul 01:56:24 02:00:08 12° 269° (W) 02:03:55 29.354 - 29.394 USB, Beacon 29.352 USB
OPAL 31 Jul 02:01:14 02:02:14 11° 40° (NE) 02:03:14 ?
JAS-1B 31 Jul 02:04:28 02:09:28 15° 71° (ENE) 02:14:08 435.800 - 435.900 CW/SSB
ITAMSAT 1 31 Jul 02:20:52 02:23:24 14° 84° (E) 02:25:55 435.822 SSB
Uribyol 2 31 Jul 02:38:53 02:42:38 20° 89° (E) 02:46:22 436.500 FM
AO-27 31 Jul 02:39:49 02:43:34 20° 89° (E) 02:47:17 436.795 MHz FM
MaSat-1 31 Jul 02:48:26 02:50:57 13° 7° (N) 02:53:30 437.345 MHz
Sapphire 31 Jul 02:52:56 02:58:14 53° 318° (NW) 03:03:34 437.095 MHz 1200 baud AX-25 AFSK
AO-Echo 31 Jul 03:03:28 03:07:58 30° 93° (E) 03:12:19 ?
Oscar 19 31 Jul 03:04:13 03:09:20 56° 101° (E) 03:14:25 437.125 CW, 437.150 USB
ISS 31 Jul 03:14:45 03:18:06 67° 184° (S) 03:21:27 145.800 FM
Gurwin Techsat 1B 31 Jul 03:14:46 03:18:24 18° 87° (E) 03:22:01 435.225 FM
PCSat 31 Jul 03:26:47 03:31:46 36° 326° (NNW) 03:36:48 145.825 MHz
Oscar 16 31 Jul 03:33:02 03:38:14 87° 287° (WNW) 03:43:25 437.025 USB, Beacon 2401.1428
OPAL 31 Jul 03:35:18 03:39:57 42° 61° (ENE) 03:44:39 ?
JAS-1B 31 Jul 03:53:05 04:02:30 56° 97° (E) 04:10:36 435.800 - 435.900 CW/SSB
ITAMSAT 1 31 Jul 03:58:36 04:03:49 76° 105° (ESE) 04:08:59 435.822 SSB
Uribyol 2 31 Jul 04:17:32 04:22:43 76° 289° (WNW) 04:27:52 436.500 FM
AO-27 31 Jul 04:18:29 04:23:42 78° 289° (WNW) 04:28:53 436.795 MHz FM
MaSat-1 31 Jul 04:25:59 04:30:09 23° 30° (NNE) 04:34:19 437.345 MHz
TMSAT-1 31 Jul 04:27:51 04:33:00 49° 99° (E) 04:38:07 436.925 FM
AO-7 31 Jul 04:30:11 04:36:08 21° 86° (E) 04:42:03 29.400 - 29.500 MHz
Sapphire 31 Jul 04:38:36 04:42:51 23° 342° (NNW) 04:47:07 437.095 MHz 1200 baud AX-25 AFSK
AO-Echo 31 Jul 04:42:03 04:46:59 48° 294° (WNW) 04:51:44 ?
Oscar 19 31 Jul 04:44:01 04:48:26 29° 301° (WNW) 04:52:51 437.125 CW, 437.150 USB
ISS 31 Jul 04:51:29 04:54:34 34° 204° (SSW) 04:57:39 145.800 FM
Gurwin Techsat 1B 31 Jul 04:53:44 04:59:05 85° 287° (WNW) 05:04:24 435.225 FM
Uosat F 31 Jul 05:02:33 05:06:44 26° 92° (E) 05:10:53 435.120 FM
PCSat 31 Jul 05:12:48 05:16:44 20° 352° (N) 05:20:40 145.825 MHz
Oscar 16 31 Jul 05:13:23 05:16:56 19° 307° (NW) 05:20:29 437.025 USB, Beacon 2401.1428
OPAL 31 Jul 05:14:26 05:18:57 35° 261° (W) 05:23:31 ?
ITAMSAT 1 31 Jul 05:38:51 05:42:51 23° 305° (NW) 05:46:50 435.822 SSB
JAS-1B 31 Jul 05:43:44 05:52:57 52° 302° (WNW) 06:01:03 435.800 - 435.900 CW/SSB
KITSAT 1 31 Jul 05:54:23 06:00:59 29° 108° (ESE) 06:07:36 435.175 FM
Uribyol 2 31 Jul 05:58:11 06:01:26 17° 310° (NW) 06:04:40 436.500 FM
AO-27 31 Jul 05:59:09 06:02:28 17° 309° (NW) 06:05:47 436.795 MHz FM
STRAND 1 31 Jul 06:02:36 06:07:01 30° 59° (ENE) 06:11:26 ?
MaSat-1 31 Jul 06:03:05 06:08:24 69° 52° (NE) 06:13:34 437.345 MHz
TMSAT-1 31 Jul 06:08:05 06:12:48 34° 299° (WNW) 06:17:30 436.925 FM
AO-7 31 Jul 06:21:59 06:30:23 76° 108° (ESE) 06:38:42 29.400 - 29.500 MHz
AO-Echo 31 Jul 06:23:01 06:24:36 11° 315° (NW) 06:26:09 ?
Sapphire 31 Jul 06:24:15 06:28:11 20° 8° (N) 06:32:06 437.095 MHz 1200 baud AX-25 AFSK
Gurwin Techsat 1B 31 Jul 06:34:43 06:38:23 19° 308° (NW) 06:42:02 435.225 FM
JAS-2 31 Jul 06:40:57 06:45:24 21° 85° (E) 06:49:31 435.800 - 435.900 CW/SSB, 435.910 FM
Uosat F 31 Jul 06:40:57 06:45:53 57° 292° (WNW) 06:50:47 435.120 FM
PCSat 31 Jul 06:57:48 07:02:03 23° 18° (NNE) 07:06:18 145.825 MHz
Hamsat 31 Jul 07:29:38 07:33:54 57° 101° (E) 07:38:10 145.90 MHz
JAS-1B 31 Jul 07:34:44 07:41:19 21° 326° (NNW) 07:47:30 435.800 - 435.900 CW/SSB
STRAND 1 31 Jul 07:40:57 07:46:00 55° 259° (W) 07:51:04 ?
MaSat-1 31 Jul 07:40:59 07:45:22 27° 253° (WSW) 07:49:35 437.345 MHz
KITSAT 1 31 Jul 07:47:23 07:55:31 90° 315° (NW) 08:03:41 435.175 FM
SO-67 31 Jul 07:52:50 07:55:15 17° 91° (E) 07:57:39 435.3500 MHz FM
Sapphire 31 Jul 08:08:08 08:13:09 36° 33° (NNE) 08:18:08 437.095 MHz 1200 baud AX-25 AFSK
Saudisat 1A 31 Jul 08:09:33 08:13:43 42° 124° (SE) 08:17:54 436.775 MHz
AO-7 31 Jul 08:15:15 08:22:39 37° 311° (NW) 08:30:01 29.400 - 29.500 MHz
Uosat F 31 Jul 08:21:27 08:23:43 13° 313° (NW) 08:25:58 435.120 FM
JAS-2 31 Jul 08:25:14 08:31:24 78° 289° (WNW) 08:36:52 435.800 - 435.900 CW/SSB, 435.910 FM
PCSat 31 Jul 08:41:20 08:46:40 52° 42° (NE) 08:51:58 145.825 MHz
Hamsat 31 Jul 09:06:15 09:09:34 22° 300° (WNW) 09:12:54 145.90 MHz
JAS-1B 31 Jul 09:24:56 09:28:17 12° 352° (N) 09:31:34 435.800 - 435.900 CW/SSB
SO-67 31 Jul 09:25:13 09:28:34 45° 290° (WNW) 09:31:54 435.3500 MHz FM
KITSAT 1 31 Jul 09:44:16 09:51:52 42° 336° (NNW) 09:59:30 435.175 FM
Saudisat 1A 31 Jul 09:49:05 09:53:20 44° 325° (NW) 09:57:36 436.775 MHz
Sapphire 31 Jul 09:51:35 09:57:00 68° 236° (SW) 10:02:22 437.095 MHz 1200 baud AX-25 AFSK
UKube-1 31 Jul 09:56:29 09:59:32 18° 90° (E) 10:02:33 145.840 MHz, 145.915 MHz
HO-68 31 Jul 10:07:54 10:14:35 40° 96° (E) 10:21:11 435.675 MHz FM
AO-7 31 Jul 10:08:39 10:13:12 16° 337° (NNW) 10:17:45 29.400 - 29.500 MHz
JAS-2 31 Jul 10:11:17 10:15:30 20° 313° (NW) 10:19:25 435.800 - 435.900 CW/SSB, 435.910 FM
PCSat 31 Jul 10:24:59 10:30:01 39° 243° (WSW) 10:35:01 145.825 MHz
Oscar 11 31 Jul 10:38:23 10:42:04 26° 93° (E) 10:45:43 145.825 FM, Beacon 2401.500 USB
FUNcube-1 31 Jul 11:07:17 11:10:26 20° 91° (E) 11:13:36 145.950 - 145.970 MHz USB
JAS-1B 31 Jul 11:10:13 11:14:51 15° 19° (NNE) 11:19:28 435.800 - 435.900 CW/SSB
Saudisat 1A 31 Jul 11:30:33 11:33:56 21° 348° (NNW) 11:37:19 436.775 MHz
UKube-1 31 Jul 11:31:51 11:36:12 66° 290° (WNW) 11:40:30 145.840 MHz, 145.915 MHz
Sapphire 31 Jul 11:36:45 11:39:28 14° 256° (WSW) 11:42:10 437.095 MHz 1200 baud AX-25 AFSK
KITSAT 1 31 Jul 11:42:12 11:49:26 34° 5° (N) 11:56:38 435.175 FM
Oscar 16 31 Jul 11:42:53 11:44:08 11° 44° (NE) 11:45:22 437.025 USB, Beacon 2401.1428
SO-50 31 Jul 11:48:51 11:50:08 11° 109° (ESE) 11:51:26 436.795 FM
HO-68 31 Jul 11:55:37 12:02:35 57° 298° (WNW) 12:09:31 435.675 MHz FM
AO-7 31 Jul 11:59:55 12:02:41 12° 4° (N) 12:05:27 29.400 - 29.500 MHz
RS-15 31 Jul 12:05:04 12:11:07 17° 95° (E) 12:17:07 29.354 - 29.394 USB, Beacon 29.352 USB
Oscar 11 31 Jul 12:14:18 12:18:27 44° 292° (WNW) 12:22:35 145.825 FM, Beacon 2401.500 USB
Uribyol 2 31 Jul 12:26:52 12:29:08 13° 46° (NE) 12:31:24 436.500 FM
AO-27 31 Jul 12:28:02 12:30:19 13° 46° (NE) 12:32:36 436.795 MHz FM
FUNcube-1 31 Jul 12:43:06 12:47:11 54° 290° (WNW) 12:51:17 145.950 - 145.970 MHz USB
AO-Echo 31 Jul 12:45:58 12:49:16 17° 51° (NE) 12:52:33 ?
Oscar 19 31 Jul 12:49:19 12:53:37 28° 59° (ENE) 12:57:57 437.125 CW, 437.150 USB
JAS-1B 31 Jul 12:54:26 13:02:18 30° 44° (NE) 13:10:18 435.800 - 435.900 CW/SSB
Gurwin Techsat 1B 31 Jul 13:05:48 13:07:53 12° 45° (NE) 13:09:58 435.225 FM
UKube-1 31 Jul 13:09:50 13:11:37 12° 310° (NW) 13:13:23 145.840 MHz, 145.915 MHz
Saudisat 1A 31 Jul 13:11:31 13:14:56 21° 13° (NNE) 13:18:20 436.775 MHz
Oscar 16 31 Jul 13:17:27 13:22:19 45° 65° (ENE) 13:27:12 437.025 USB, Beacon 2401.1428
SO-50 31 Jul 13:25:21 13:29:47 62° 129° (SE) 13:34:20 436.795 FM
UOSAT-12 31 Jul 13:35:43 13:36:11 10° 107° (ESE) 13:36:38 437.025 FM, 437.400 FM
KITSAT 1 31 Jul 13:38:47 13:46:42 52° 33° (NNE) 13:54:33 435.175 FM
ITAMSAT 1 31 Jul 13:44:07 13:48:55 39° 63° (ENE) 13:53:43 435.822 SSB
HO-68 31 Jul 13:44:19 13:48:57 19° 321° (NW) 13:53:34 435.675 MHz FM
AO-7 31 Jul 13:46:48 13:52:24 20° 32° (NNE) 13:57:59 29.400 - 29.500 MHz
Uribyol 2 31 Jul 14:02:32 14:07:35 54° 67° (ENE) 14:12:39 436.500 FM
AO-27 31 Jul 14:03:44 14:08:48 54° 67° (ENE) 14:13:53 436.795 MHz FM
RS-15 31 Jul 14:10:13 14:20:55 59° 120° (ESE) 14:31:31 29.354 - 29.394 USB, Beacon 29.352 USB
TMSAT-1 31 Jul 14:16:23 14:20:47 27° 58° (ENE) 14:25:11 436.925 FM
AO-Echo 31 Jul 14:21:56 14:27:14 73° 71° (ENE) 14:32:31 ?
Oscar 19 31 Jul 14:27:40 14:32:42 58° 259° (W) 14:37:47 437.125 CW, 437.150 USB
